グレーラー彗星

P/2019 B2 ( Groeller )

English version
Home page
Updated on September 17, 2019

---------------------------------------------------------------------

・ プロフィール

発見日 2019年1月26日
発見光度 18.0等
発見者 H. Groeller (Catalina Sky Survey)

・ 写真集

・ 軌道要素

Epoch 2019 June 6.0 TT = JDT 2458640.5
T 2019 June 8.05227 TT                                  Williams
q   2.4164442            (2000.0)            P               Q
n   0.13034195     Peri.  358.71734     -0.99651825     -0.08143542
a   3.8525349      Node   176.45957     +0.07884143     -0.99015952
e   0.3727651      Incl.   16.82910     +0.02711824     -0.11380858
P   7.56
From 139 observations 2019 Jan. 4-May 15, mean residual 0".6.

・ 光度変化

        m1 = 8.0 + 5 logΔ + 20.0 log r(t - 150)

---------------------------------------------------------------------

軌道要素はM.P.E.C. 2019-Q135に掲載されたものです。
光度グラフはComet for Windowsで作成したものです。

---------------------------------------------------------------------

Copyright(C) Seiichi Yoshida (comet@aerith.net). All rights reserved.